カタログに戻る

BLOCK DM-SL R/B

運用中HEO
NORAD 27953·ROCKET BODY· XX

打ち上げ Oct 1, 2003 から Sea Launch Platform

Loading…

次のパス (今後24時間)

TLE

最新Source: Space-Track

元期: Sep 14, 2026, 08:53 UTC

1 27953U 03044B   26257.37027551 -.00000110  00000-0  00000-0 0  9992
2 27953   0.5616 330.1214 6588403 326.5208  11.8510  2.14422782179746

AllMySatでBLOCK DM-SL R/Bをリアルタイム追跡

Download on the App Store